TimeCDT,TemperatureF,Dew PointF,Humidity,Sea Level PressureIn,VisibilityMPH,Wind Direction,Wind SpeedMPH,Gust SpeedMPH,PrecipitationIn,Events,Conditions,WindDirDegrees,DateUTC
12:52 AM,69.1,55.0,61,30.23,10.0,SSE,3.5,-,N/A,,Clear,160,2013-08-25 05:52:00
1:52 AM,68.0,55.0,63,30.23,10.0,South,5.8,-,N/A,,Clear,180,2013-08-25 06:52:00
2:52 AM,68.0,55.0,63,30.23,10.0,Calm,Calm,-,N/A,,Clear,0,2013-08-25 07:52:00
3:52 AM,66.9,54.0,63,30.23,10.0,South,4.6,-,N/A,,Clear,180,2013-08-25 08:52:00
4:52 AM,66.0,54.0,65,30.23,10.0,South,4.6,-,N/A,,Clear,180,2013-08-25 09:52:00
5:52 AM,66.0,53.1,63,30.24,10.0,Calm,Calm,-,N/A,,Clear,0,2013-08-25 10:52:00
6:52 AM,70.0,54.0,57,30.25,10.0,SSW,5.8,-,N/A,,Clear,210,2013-08-25 11:52:00
7:52 AM,72.0,55.9,57,30.26,10.0,SSW,4.6,-,N/A,,Clear,200,2013-08-25 12:52:00
8:52 AM,77.0,57.9,52,30.26,10.0,SSW,8.1,-,N/A,,Clear,200,2013-08-25 13:52:00
9:52 AM,81.0,60.1,49,30.25,10.0,WSW,10.4,16.1,N/A,,Clear,240,2013-08-25 14:52:00
10:52 AM,84.9,63.0,48,30.24,10.0,WSW,9.2,-,N/A,,Clear,240,2013-08-25 15:52:00
11:52 AM,86.0,64.0,48,30.23,10.0,WSW,10.4,19.6,N/A,,Clear,250,2013-08-25 16:52:00
12:52 PM,88.0,64.9,46,30.21,10.0,SW,11.5,-,N/A,,Clear,220,2013-08-25 17:52:00
1:52 PM,89.1,66.0,46,30.20,10.0,WSW,8.1,17.3,N/A,,Clear,250,2013-08-25 18:52:00
2:52 PM,90.0,66.0,45,30.18,10.0,WSW,9.2,19.6,N/A,,Clear,240,2013-08-25 19:52:00
3:52 PM,90.0,66.0,45,30.17,10.0,WSW,10.4,18.4,N/A,,Clear,250,2013-08-25 20:52:00
4:52 PM,89.1,66.9,48,30.15,10.0,SW,9.2,-,N/A,,Clear,230,2013-08-25 21:52:00
5:52 PM,88.0,66.9,49,30.15,10.0,SSW,15.0,20.7,N/A,,Clear,200,2013-08-25 22:52:00
6:52 PM,86.0,66.9,53,30.14,10.0,SSW,9.2,-,N/A,,Clear,210,2013-08-25 23:52:00
7:52 PM,82.9,66.0,56,30.15,10.0,SSW,9.2,-,N/A,,Clear,210,2013-08-26 00:52:00
8:52 PM,82.0,66.0,58,30.16,10.0,SSW,6.9,-,N/A,,Clear,210,2013-08-26 01:52:00
9:52 PM,81.0,66.0,60,30.17,10.0,SSW,10.4,-,N/A,,Clear,210,2013-08-26 02:52:00
10:52 PM,80.1,64.9,60,30.17,10.0,SSW,6.9,-,N/A,,Clear,210,2013-08-26 03:52:00
11:52 PM,79.0,64.0,60,30.16,10.0,SW,8.1,-,N/A,,Clear,220,2013-08-26 04:52:00